www.pogodaiklimat.ru

Погода и климат >> Архив погоды >> Россия >> Ростовская область >> Аэропорт Платов


ПОГОДА в Аэропорту Платов

  • Прогноз погоды в Аэропорту Платов
  • Монитор погоды в Аэропорту Платов

АРХИВ ПОГОДЫ в Аэропорту Платов

Время (UTC), дата Ветер
(напр.,м/с)
 
Видим.   Явления Облачность Т
(С)
Тd
(С)
f
(%)
Тe
(С)
Тes
(С)
Комфортность P
(гПа)
Po
(гПа)
Тmin
(С)
Tmax
(С)
R
(мм)
R24
(мм)
S
(см)
21 16.09 З 2 10 км ясно +15.5 +10.8 74 +15 +15 1011.1 999.8
00 17.09 З 3 10 км ясно +16.2 +13.1 82 +16 +16 1010.1 998.8
03 17.09 З 4 10 км ясно +15.0 +13.0 88 +14 +14 1009.6 998.3 +14.6
06 17.09 З 8-11
{11}
10 км 3/0
[Ac trans]
+21.4 +14.4 64 +24 +25 комфорт 1008.8 997.7
09 17.09 З 10-13
{15}
10 км 5/3 1000 м
[Cu med, cong Ac trans Ci fib]
+24.9 +14.3 52 +27 +28 жарко 1008.0 997.1
12 17.09 З 10-13
{15}
10 км 6/3 1000 м
[Cb calv Ac trans Ci]
+24.9 +13.9 50 +27 +27 жарко 1006.9 996.0
15 17.09 С 4
{12}
10 км гроза, ливневой дождь 9/5 1440 м
[Cb cap Ac trans Ci]
+16.1 +14.2 88 +15 +15 1008.6 997.3 +26.3
18 17.09 ЮЗ 2
{12}
10 км в посл. час ливневой дождь {гроза} 9/5 1140 м
[Cb calv Ac trans]
+15.6 +14.7 94 +15 +15 1009.3 998.0
21 17.09 З 2 5000 м зарница {ливн. осадки} 9/5 400 м
[Cb cap Ac trans]
+15.6 +14.9 96 +15 +15 1008.7 997.4
00 18.09 З 2 4500 м местами туман поземный {ливн. осадки} 3/0
[Ac trans]
+12.8 +12.1 96 +12 +12 1009.1 997.7
03 18.09 З 3 8000 м дымка 5/0
[Ac trans]
+12.1 +11.5 96 +10 +10 1009.4 998.0 +11.9
06 18.09 ЮЗ 4 10 км 5/4 300 м
[Cb calv Ac trans]
+15.8 +13.4 86 +15 +16 1009.3 998.0 +11.7
09 18.09 ЮЗ 8-11
{10}
10 км в посл. час ливневой дождь 5/3 600 м
[Cb calv Ac trans]
+21.7 +13.8 61 +25 +26 комфорт 1007.0 996.0
12 18.09 З 17-22
{22}
9000 м слаб. ливневой дождь 9/4 1000 м
[Cb calv Ac trans]
+22.0 +17.4 75 +26 +26 душно 1003.2 992.2
15 18.09 СЗ 7-10
{22}
10 км {гроза, ливн. осадки} 8/3 1000 м
[Cb calv Ac trans]
+17.7 +11.7 68 +17 +17 1005.9 994.7 +24.7
18 18.09 З 7
{22}
10 км слаб. ливневой дождь 9/5 870 м
[Cb calv Ac trans]
+15.0 +11.0 77 +13 +13 1009.3 998.0
21 18.09 З 4
{12}
10 км 6/1 1000 м
[Cb calv Ac trans]
+11.7 +5.3 65 +10 +10 1012.8 1001.3
00 19.09 З 4
{12}
10 км 3/0
[Ac trans]
+9.7 +3.7 66 +7 +7 1014.4 1002.8
03 19.09 З 3 10 км ясно +7.6 +3.5 75 +5 +5 1016.4 1004.7 +7.3
06 19.09 СЗ 7-10
{10}
10 км 1/1 1000 м
[Sc]
+11.8 +6.2 69 +9 +10 1018.1 1006.5
09 19.09 СЗ 6
{11}
10 км 5/5 1380 м
[Sc]
+15.4 +5.8 53 +14 +16 1018.7 1007.3
12 19.09 З 6-10
{11}
10 км 5/4 1000 м
[Sc Ac trans]
+16.6 +4.9 46 +16 +17 1018.5 1007.1
15 19.09 СЗ 3
{10}
10 км 4/3 1000 м
[Sc Ac trans]
+16.2 +4.1 44 +16 +16 1018.7 1007.3 +17.8
18 19.09 З 2
{10}
10 км 1/1 600 м
[Sc]
+11.8 +8.4 80 +11 +11 1019.8 1008.2
00 20.09 З 2 10 км 5/0
[Ac trans Ci fib]
+9.6 +7.1 84 +8 +8 1019.1 1007.4
03 20.09 штиль 0 10 км 9/0
[Ac trans Ci fib]
+6.6 +5.8 95 +6 +6 1018.7 1006.9 +6.4
06 20.09 штиль 0 10 км 9/0
[Ac trans Ci]
+10.5 +8.6 88 +10 +13 1018.3 1006.7
09 20.09 Ю 2 10 км 9/1 600 м
[Sc Ac trans Ci]
+15.2 +6.7 57 +15 +20 1017.1 1005.7
12 20.09 Ю 2 10 км 9/3 600 м
[Cb calv Ac trans]
+15.7 +4.2 46 +16 +18 1015.7 1004.3
15 20.09 Ю 4 10 км 9/3 1000 м
[Cb calv Ac trans]
+12.5 +4.4 58 +11 +11 1015.2 1003.7 +16.3
18 20.09 ЮЗ 4 10 км 9/3 1500 м
[Cb calv Ac trans]
+10.4 +8.2 86 +8 +8 1015.9 1004.3
21 20.09 З 3 10 км 8/4 1500 м
[Cb calv Ac trans]
+9.4 +8.0 91 +7 +7 1016.2 1004.6
00 21.09 Ю 3 10 км в посл. час ливневой дождь 9/4 840 м
[Cb calv Ac trans]
+9.3 +8.0 92 +7 +7 1015.6 1004.0
03 21.09 З 3 10 км 6/3 600 м
[Cb calv Ac trans Ci fib]
+7.4 +6.4 93 +4 +4 1015.3 1003.6 +7.3
06 21.09 СЗ 4 10 км 8/5 270 м
[Cb calv Ac trans]
+11.0 +8.8 86 +9 +9 1015.7 1004.1 +7.0
09 21.09 СЗ 3 10 км 8/5 1500 м
[Cb calv Ac trans]
+14.8 +3.3 46 +14 +17 1015.2 1003.8
12 21.09 С 5
{13}
8000 м гроза, ливневой дождь 9/6 1500 м
[Cb calv Ac trans]
+10.9 +5.2 68 +8 +9 1015.9 1004.3
15 21.09 ЮЗ 4 10 км слаб. ливневой дождь, в посл. час гроза 8/4 1500 м
[Cb calv Ac trans]
+9.9 +7.4 84 +7 +7 1016.5 1004.9 +16.5
18 21.09 З 2
{10}
10 км {гроза, ливн. осадки} 5/1 1000 м
[Cb calv Ac trans]
+7.5 +6.2 91 +5 +5 1018.7 1006.9
21 21.09 З 2 10 км 3/0
[Ac trans Ci fib]
+5.9 +3.9 87 +3 +3 1018.8 1007.0
00 22.09 З 2 10 км 3/0
[Ac trans Ci fib]
+5.4 +2.9 84 +3 +3 1018.8 1006.9
03 22.09 З 4 10 км 3/0
[Ac trans Ci fib]
+4.3 +1.8 84 0 0 1018.3 1006.4 +3.9
06 22.09 З 8-10
{10}
10 км 8/3 1500 м
[Sc Ac trans Ci fib]
+11.6 +7.0 73 +8 +9 1016.6 1005.0 +3.8
09 22.09 З 12-18
{20}
9000 м слаб. ливневой дождь 9/6 930 м
[Cb calv Ac trans]
+13.4 +8.3 71 +10 +10 1014.1 1002.6
12 22.09 З 11-15
{20}
10 км в посл. час ливневой дождь 9/5 1320 м
[Cb calv Ac trans]
+15.7 +9.0 64 +13 +13 1012.3 1001.0
15 22.09 З 10-14
{17}
10 км 8/4 1500 м
[Cb calv Ac trans]
+16.3 +7.9 57 +14 +14 1012.3 1001.0 +16.6
18 22.09 З 8-11
{17}
10 км 8/5 1500 м
[Cb calv Ac trans]
+16.3 +7.9 57 +15 +15 1012.9 1001.6

 

Местоположение метеостанции Аэропорт Платов (Ростовская область, Россия): широта 47.49 долгота 39.92 высота над уровнем моря 84 м.

В архиве по умолчанию представлена погода в Аэропорту Платов за последнюю неделю. Архивные данные за месяц целиком и за предыдущие месяцы, начиная с января 2011 года, Вы можете получить, выбрав интересующий диапазон дат из раскрывающегося списка и нажав кнопку "Ввод!".


*Определитесь, кто Вы:
робот инопланетянин человек

Внимание! Время в таблицах - всемирное. Для получения местного времени необходимо прибавить поправку, которая равна 3 ч.

Смотрите также архив погоды в соседних городах и на ближайших метеорологических станциях:

Погода в Ростове-на-Дону (Ростовская область, Россия) (26 км)
Погода в Шахтах (Ростовская область, Россия) (35 км)
Погода в Семикаракорске (Ростовская область, Россия) (68 км)
Погода в Зерноград (Ростовская область, Россия) (77 км)
Погода в Матвеевом Кургане (Ростовская область, Россия) (79 км)
Погода в Таганроге (Ростовская область, Россия) (83 км)
Погода в Константиновске (Ростовская область, Россия) (89 км)
Погода в Каменск-Шахтинском (Ростовская область, Россия) (94 км)
Погода в Маргаритово (Ростовская область, Россия) (101 км)
Погода в Белой Калитве (Ростовская область, Россия) (106 км)

Пояснения к столбцам:

Ветер - указаны скорость ветра в м/с - средняя за 10 мин, порывы в срок и между сроками (в фигурных скобках) и направление, откуда дует ветер: С - северный, СВ - северо-восточный, В - восточный, ЮВ - юго-восточный, Ю - южный, ЮЗ - юго-западный, З - западный, СЗ - северо-западный.
Видимость - горизонтальная дальность видимости в метрах или километрах. При видимости от 1 до 10 км при отсутствии осадков обычно наблюдается дымка, при ухудшении видимости до 1 км и менее - туман. В сухую погоду видимость может ухудшаться дымом, пылью или мглою.
Явления - указаны атмосферные явления, наблюдавшиеся в срок или в последний час перед сроком; фигурными скобками обозначены явления, наблюдавшиеся между сроками (за 1-3 часа до срока); квадратными скобками обозначены град или гололедные отложения с указанием их диаметра в мм.
Облачность - указаны через наклонную черту общая и нижняя облачность в баллах и высота нижней границы облаков в метрах; квадратными скобками обозначены формы облаков: Ci - перистые, Cs - перисто-слоистые, Cc - перисто-кучевые, Ac - высококучевые, As - высокослоистые, Sc - слоисто-кучевые, Ns - слоисто-дождевые, Cu - кучевые, Cb - кучево-дождевые. Подробнее классификацию облаков см. в Атласе облаков (PDF).
T - Температура воздуха - температура, измеренная на высоте 2 м над землей.
Td - Температура точки росы - температура, при понижении до которой содержащийся в воздухе водяной пар достигнет насыщения.
f - Относительная влажность воздуха - влажноcть воздуха, измеренная на высоте 2 м над землей.
Te - Эффективная температура - температура, которую ощущает одетый по сезону человек в тени. Характеристика душности погоды. При расчете учитывается влияние влажности воздуха и скорости ветра на теплоощущения человека.
Tes - Эффективная температура на солнце - температура, которую ощущает человек, с поправкой на солнечный нагрев. Характеристика знойности погоды. Зависит от высоты солнца над горизонтом, облачности и скорости ветра. Ночью, в пасмурную погоду, а также при ветре 12 м/с и более поправка равна нулю.
P - Атмосферное давление - приведенное к уровню моря атмосферное давление.
Po - Атмосферное давление - измеренное на уровне метеостанции атмосферное давление.
Tmin - Минимальная температура - минимум температуры воздуха на высоте 2 м над землей.
Tmax - Максимальная температура - максимум температуры воздуха на высоте 2 м над землей.
R - Количество осадков - Количество выпавших осадков за период времени, мм. При наведении курсора мыши на число - период времени, за который выпало указанное количество осадков.
R24 - Количество осадков - Количество выпавших осадков за 24 часа, мм.
S - Снежный покров - Высота снежного покрова, см. При наведении курсора мыши на число - состояние снежного покрова и степень покрытия местности в баллах.